Location: 22
(39.7117°N, 89.5929°W)
Time: 20:46:43
(UTC-05:00)

Vanguard 3 - Pass Details

Date: 03 February 2023
Orbit: 508 x 3249 km, 33.4° (Epoch: 24 March)

Event Time Altitude Azimuth Distance (km) Brightness Sun altitude
Rises 19:24:33 0° 248° (WSW) 4,212 12.0 -24.1°
Reaches altitude 10° 19:26:56 10° 245° (WSW) 3,523 11.3 -24.6°
Maximum altitude 19:36:21 62° 167° (SSE) 2,278 9.2 -26.4°
Enters shadow 19:42:32 39° 106° (ESE) 3,316 9.7 -27.6°
Drops below altitude 10° 19:52:38 10° 92° (E) 5,803 - -29.5°
Sets 19:57:48 0° 90° (E) 7,048 - -30.5°
